K4IR Weather Reports


Display with metric or nautical units.
time (UTC)temp
F
wind
direction
speed
MPH
gust
MPH
rain 1hr
in
rain 24hr
in
rain mn
in
humidity
%
barometer
mb
20260506003122 63 85 0.0 0.0 0.00 0.00 0.00 84 1017.2
20260506002120 64 85 0.0 0.0 0.00 0.00 0.00 82 1017.0
20260506001119 65 85 0.0 0.0 0.00 0.00 0.00 80 1017.4
20260506000119 65 85 0.0 1.0 0.00 0.00 0.00 78 1017.1
20260505235114 66 86 0.0 0.0 0.00 0.00 0.00 76 1017.1
20260505234113 68 85 0.0 0.0 0.00 0.00 0.00 73 1017.0
20260505233108 69 93 0.0 1.0 0.00 0.00 0.00 71 1017.2
20260505232103 69 109 0.0 1.0 0.00 0.00 0.00 70 1017.2
20260505231059 69 109 1.0 1.0 0.00 0.00 0.00 68 1017.4
20260505230058 70 80 1.0 5.0 0.00 0.00 0.00 68 1017.3
20260505225056 70 78 0.0 1.0 0.00 0.00 0.00 67 1017.5
20260505224056 71 306 2.0 2.0 0.00 0.00 0.00 65 1017.3
20260505223055 72 276 2.0 2.0 0.00 0.00 0.00 64 1017.2
20260505222053 73 64 1.0 2.0 0.00 0.00 0.00 63 1017.4
20260505221053 73 44 1.0 3.0 0.00 0.00 0.00 63 1017.4
20260505220048 75 35 2.0 3.0 0.00 0.00 0.00 59 1017.3
20260505215043 74 96 1.0 3.0 0.00 0.00 0.00 62 1017.3
20260505214044 73 7 2.0 6.0 0.00 0.00 0.00 63 1017.3
20260505213043 72 72 0.0 3.0 0.00 0.00 0.00 67 1017.3
20260505212044 72 13 3.0 3.0 0.00 0.00 0.00 66 1017.4
20260505211043 72 154 1.0 2.0 0.00 0.00 0.00 67 1017.6
20260505210037 72 211 3.0 6.0 0.00 0.00 0.00 66 1017.3
20260505205038 72 81 0.0 2.0 0.00 0.00 0.00 66 1017.4
20260505204032 73 309 2.0 3.0 0.00 0.00 0.00 62 1017.3
20260505203032 73 263 1.0 5.0 0.00 0.00 0.00 60 1017.4
20260505202030 74 336 3.0 6.0 0.00 0.00 0.00 58 1017.0
20260505201025 74 89 1.0 3.0 0.00 0.00 0.00 59 1017.2
20260505200019 78 260 3.0 5.0 0.00 0.00 0.00 51 1017.4
20260505195018 77 31 2.0 6.0 0.00 0.00 0.00 55 1017.6
20260505194016 76 157 2.0 3.0 0.00 0.00 0.00 56 1017.8
20260505193010 77 84 1.0 3.0 0.00 0.00 0.00 55 1017.9
20260505192006 76 359 3.0 5.0 0.00 0.00 0.00 55 1017.9
20260505191001 76 71 3.0 8.0 0.00 0.00 0.00 56 1018.1
20260505185958 76 93 1.0 7.0 0.00 0.00 0.00 57 1017.9
20260505184957 76 71 1.0 5.0 0.00 0.00 0.00 56 1017.8
20260505183957 77 117 2.0 3.0 0.00 0.00 0.00 56 1018.0
20260505182956 77 209 3.0 5.0 0.00 0.00 0.00 53 1018.3
20260505181955 77 7 3.0 5.0 0.00 0.00 0.00 53 1018.1
20260505180956 77 111 3.0 7.0 0.00 0.00 0.00 54 1018.4
20260505175955 74 312 2.0 6.0 0.00 0.00 0.00 60 1018.4
20260505174954 75 62 3.0 3.0 0.00 0.00 0.00 59 1018.3
20260505173952 74 127 1.0 3.0 0.00 0.00 0.00 60 1018.5
20260505172952 74 26 3.0 5.0 0.00 0.00 0.00 58 1018.7
20260505171950 76 97 1.0 5.0 0.00 0.00 0.00 58 1018.5
20260505170949 74 108 1.0 5.0 0.00 0.00 0.00 60 1018.4
20260505165948 73 64 1.0 2.0 0.00 0.00 0.00 60 1018.7
20260505164945 76 319 3.0 6.0 0.00 0.00 0.00 55 1018.7
20260505163946 77 33 2.0 3.0 0.00 0.00 0.00 55 1018.9
20260505162943 76 342 2.0 3.0 0.00 0.00 0.00 56 1019.0
20260505161942 76 76 1.0 5.0 0.00 0.00 0.00 56 1018.6
20260505160942 75 38 3.0 7.0 0.00 0.00 0.00 57 1019.1
20260505152934 74 62 1.0 2.0 0.00 0.00 0.00 56 1018.8
20260505151931 73 91 1.0 3.0 0.00 0.00 0.00 62 1019.0
20260505150931 73 69 2.0 3.0 0.00 0.00 0.00 61 1019.0
20260505124903 71 92 0.0 1.0 0.00 0.00 0.00 75 1018.5
20260505123902 70 60 0.0 1.0 0.00 0.00 0.00 80 1018.5
20260505122900 68 60 0.0 0.0 0.00 0.00 0.00 79 1018.5
20260505121900 65 60 0.0 0.0 0.00 0.00 0.00 85 1018.3
20260505120858 61 61 0.0 0.0 0.00 0.00 0.00 96 1018.6
20260505115854 58 60 0.0 0.0 0.00 0.00 0.00 98 1018.3
20260505114849 57 61 0.0 0.0 0.00 0.00 0.00 99 1018.5
20260505113847 53 60 0.0 0.0 0.00 0.00 0.00 99 1018.1
20260505112845 51 60 0.0 0.0 0.00 0.00 0.00 99 1018.0
20260505111845 50 60 0.0 0.0 0.00 0.00 0.00 99 1017.9
20260505110842 50 60 0.0 0.0 0.00 0.00 0.00 98 1017.9
20260505101833 49 60 0.0 0.0 0.00 0.00 0.00 98 1017.3
20260505100830 49 60 0.0 0.0 0.00 0.00 0.00 98 1017.2
20260505095828 49 60 0.0 0.0 0.00 0.00 0.00 98 1017.0
20260505094827 49 60 0.0 0.0 0.00 0.00 0.00 98 1017.2
20260505093825 49 60 0.0 0.0 0.00 0.00 0.00 98 1017.0
20260505092820 49 60 0.0 0.0 0.00 0.00 0.00 98 1017.1
20260505091815 49 60 0.0 0.0 0.00 0.00 0.00 98 1016.6
20260505090811 49 60 0.0 0.0 0.00 0.00 0.00 98 1016.7
20260505085806 50 60 0.0 0.0 0.00 0.00 0.00 98 1016.7
20260505084801 50 60 0.0 0.0 0.00 0.00 0.00 98 1016.7
20260505083756 50 60 0.0 0.0 0.00 0.00 0.00 98 1016.6
20260505082756 50 60 0.0 0.0 0.00 0.00 0.00 98 1016.6
20260505081754 50 60 0.0 0.0 0.00 0.00 0.00 98 1016.6
20260505080754 51 60 0.0 0.0 0.00 0.00 0.00 98 1016.6
20260505075752 51 60 0.0 0.0 0.00 0.00 0.00 97 1016.6
20260505074746 51 60 0.0 0.0 0.00 0.00 0.00 97 1016.5
20260505073741 51 60 0.0 0.0 0.00 0.00 0.00 97 1016.4
20260505072741 51 60 0.0 0.0 0.00 0.00 0.00 97 1016.5
20260505071739 51 60 0.0 0.0 0.00 0.00 0.00 97 1016.8
20260505070734 51 60 0.0 0.0 0.00 0.00 0.00 97 1016.6
20260505065731 52 60 0.0 0.0 0.00 0.00 0.00 97 1016.7
20260505064731 52 60 0.0 0.0 0.00 0.00 0.00 97 1016.6
20260505063726 52 60 0.0 0.0 0.00 0.00 0.00 97 1016.5
20260505062724 52 60 0.0 0.0 0.00 0.00 0.00 96 1016.8
20260505061719 53 60 0.0 0.0 0.00 0.00 0.00 96 1017.0
20260505060714 53 60 0.0 0.0 0.00 0.00 0.00 96 1017.0
20260505055712 53 60 0.0 0.0 0.00 0.00 0.00 96 1017.1
20260505054712 53 60 0.0 0.0 0.00 0.00 0.00 95 1017.3
20260505053708 53 60 0.0 0.0 0.00 0.00 0.00 95 1017.4
20260505052707 53 60 0.0 0.0 0.00 0.00 0.00 95 1017.6
20260505051707 53 60 0.0 0.0 0.00 0.00 0.00 95 1017.6
20260505050703 54 60 0.0 0.0 0.00 0.00 0.00 95 1017.7
20260505041648 54 60 0.0 0.0 0.00 0.00 0.00 93 1017.8
20260505040648 54 60 0.0 0.0 0.00 0.00 0.00 93 1017.5
20260505035648 54 60 0.0 0.0 0.00 0.00 0.00 93 1017.5
20260505034646 55 60 0.0 0.0 0.00 0.00 0.00 92 1017.4
20260505033646 56 60 0.0 0.0 0.00 0.00 0.00 92 1017.6
20260505032642 56 60 0.0 0.0 0.00 0.00 0.00 91 1017.6
20260505031642 56 60 0.0 0.0 0.00 0.00 0.00 91 1017.7
20260505030640 56 60 0.0 0.0 0.00 0.00 0.00 91 1017.7
20260505025637 56 60 0.0 0.0 0.00 0.00 0.00 90 1017.7
20260505024633 57 60 0.0 0.0 0.00 0.00 0.00 90 1017.8
20260505023633 56 60 0.0 0.0 0.00 0.00 0.00 89 1017.9
20260505022628 56 60 0.0 0.0 0.00 0.00 0.00 89 1017.7
20260505021627 56 60 0.0 0.0 0.00 0.00 0.00 89 1017.7
20260505020626 56 60 0.0 0.0 0.00 0.00 0.00 88 1017.8
20260505015625 56 60 0.0 0.0 0.00 0.00 0.00 87 1017.6
20260505014624 57 60 0.0 0.0 0.00 0.00 0.00 86 1017.5
20260505013625 57 60 0.0 0.0 0.00 0.00 0.00 85 1017.5
20260505012620 58 60 0.0 0.0 0.00 0.00 0.00 85 1017.3
20260505011618 58 60 0.0 0.0 0.00 0.00 0.00 83 1017.4
20260505010616 59 60 0.0 0.0 0.00 0.00 0.00 81 1017.2
20260505005615 60 60 0.0 0.0 0.00 0.00 0.00 78 1017.0
20260505004615 60 60 0.0 0.0 0.00 0.00 0.00 76 1016.9